This demonstration page uses our WeatherBlox Daily Observations layout. Learn more.

Left ArrowRight Arrow

Hourly Observations for February 5, 2022

Temp ( °F °C ) Dew Point ( °F °C ) Humidity (%) Winds ( mph kmh ) Pressure ( in mb ) Visibility ( mi km ) Precip ( " mm )
12:56 am 00:56 undefined 12 -11.3 -5 -20.4 47 47 ESE 3 6 30.50 1033 10 16 0.00 0.00
1:56 am 01:56 undefined 12 -11.2 -4 -20.1 48 48 SSE 6 9 30.49 1032 10 16 0.00 0.00
2:56 am 02:56 Clear 11 -11.4 -4 -19.8 50 50 SE 6 9 30.46 1031 10 16 0.00 0.00
3:56 am 03:56 Clear 12 -11.1 -3 -19.5 50 50 SSE 8 13 30.43 1030 10 16 0.00 0.00
4:56 am 04:56 Clear 13 -10.3 -3 -19.7 46 46 SSE 10 17 30.41 1030 10 16 0.00 0.00
5:56 am 05:56 Clear 15 -9.6 -3 -19.6 44 44 SSE 12 19 30.37 1028 10 16 0.00 0.00
6:55 am 06:55 Clear 16 -8.8 -3 -19.4 42 42 SSE 13 20 30.34 1027 10 16 0.00 0.00
7:56 am 07:56 Sunny 17 -8.3 0 -17.6 47 47 SSE 15 24 30.31 1026 10 16 0.00 0.00
8:56 am 08:56 Sunny 21 -6.2 4 -15.4 49 49 SSE 12 19 30.28 1025 10 16 0.00 0.00
9:56 am 09:56 Sunny 25 -3.7 7 -13.7 46 46 SSE 12 19 30.23 1024 10 16 0.00 0.00
10:56 am 10:56 Sunny 35 1.7 12 -11.1 38 38 S 15 24 30.19 1022 10 16 0.00 0.00
11:56 am 11:56 Sunny 43 6.3 13 -10.4 29 29 S 20 31 30.13 1020 10 16 0.00 0.00
12:56 pm 12:56 Sunny 52 10.9 13 -10.6 21 21 SSW 13 20 30.06 1018 10 16 0.00 0.00
1:56 pm 13:56 Mostly Sunny 54 12.4 13 -10.6 19 19 WSW 16 26 30.04 1017 10 16 0.00 0.00
2:56 pm 14:56 Sunny 55 13 14 -10.1 19 19 SSW 16 26 30.00 1016 10 16 0.00 0.00
3:56 pm 15:56 Sunny 55 12.7 15 -9.7 20 20 SSW 16 26 30.00 1016 10 16 0.00 0.00
4:56 pm 16:56 Mostly Cloudy 52 11.1 14 -9.8 22 22 SSW 9 15 30.01 1016 10 16 0.00 0.00
5:56 pm 17:56 Mostly Cloudy 48 9.1 15 -9.4 26 26 S 9 15 30.04 1017 10 16 0.00 0.00
6:56 pm 18:56 Cloudy 46 7.6 15 -9.3 29 29 S 7 11 30.06 1018 10 16 0.00 0.00
7:56 pm 19:56 Mostly Cloudy 42 5.4 15 -9.2 34 34 S 5 7 30.07 1018 10 16 0.00 0.00
9:56 pm 21:56 Clear 38 3.3 17 -8.1 43 43 S 8 13 30.09 1019 10 16 0.00 0.00
10:56 pm 22:56 Clear 36 2.4 19 -7.2 50 50 SSW 7 11 30.08 1019 10 16 0.00 0.00
11:56 pm 23:56 Clear 34 1 19 -7 56 56 SSW 7 11 30.09 1019 10 16 0.00 0.00

Powered by AerisWeather